NOAA NWS Hourly Roundups by Site

Regional Weather Roundup for Newport, NC

To Select Another Site Choose from List

Select Site:  

124
ASUS42 KMHX 241516
RWRMHX
WEATHER ROUNDUP FOR EASTERN NORTH CAROLINA
NATIONAL WEATHER SERVICE NEWPORT/MOREHEAD CITY NC
1100 AM EDT WED JUL 24 2024

NOTE: "FAIR" INDICATES FEW OR NO CLOUDS BELOW 12,000 FEET
WITH NO SIGNIFICANT WEATHER AND/OR OBSTRUCTIONS TO VISIBILITY

NCZ015>017-031-032-045>047-102-103-241600-
NORTH COAST

CITY           SKY/WX    TMP DP  RH WIND       PRES   REMARKS
EDENTON        PTSUNNY   83  80  91 W7        30.19S
ELIZABETH CITY PTSUNNY   83  76  79 W14       30.18R
KITTY HAWK     CLOUDY    81  73  76 SW7G17    30.18R
MANTEO         CLOUDY    82  73  75 W10G17    30.20R

$$

NCZ045>047-081-094-103-104-241600-
CENTRAL COAST

CITY           SKY/WX    TMP DP  RH WIND       PRES   REMARKS
FRISCO         CLOUDY    81  75  82 W8        30.20R
ENGELHARD      PTSUNNY   81  75  82 SW7       30.20R

$$

NCZ095-097-098-100-101-241600-
SOUTHERN COAST

CITY           SKY/WX    TMP DP  RH WIND       PRES   REMARKS
PINEY ISLAND   CLOUDY    88  77  69 SW10      30.20R HX 100
HAVELOCK       PTSUNNY   80  73  79 SW8       30.21S
BEAUFORT       CLOUDY    83  74  74 SW13      30.21S
CAPE CARTERET  PTSUNNY   82  74  76 SW12      30.22S
JACKSONVILLE   PTSUNNY   83  75  77 SW9       30.20S
WILMINGTON     SUNNY     86  75  69 S9        30.21S


$$

NCZ011>013-027>030-043-044-078>080-089-090>093-098-241600-
COASTAL PLAIN

CITY           SKY/WX    TMP DP  RH WIND       PRES   REMARKS
AHOSKIE        CLOUDY    79  79  98 S9        30.18R
TARBORO        CLOUDY    80  74  82 S7        30.18S
WILLIAMSTON    CLOUDY    82  75  78 SW9       30.19S
ROCKY MOUNT    CLOUDY    80  73  79 S10       30.18R
GREENVILLE     CLOUDY    81  79  94 W6        30.19R
WASHINGTON     PTSUNNY   82  73  75 SW7       30.21R
GOLDSBORO      CLOUDY    79  76  90 SW6       30.20R
KINSTON        SUNNY     81  73  78 SW12      30.20R
MOUNT OLIVE    PTSUNNY   81  74  78 SW9       30.20S
NEW BERN       PTSUNNY   83  74  74 S9        30.21R
KENANSVILLE    NOT AVBL
RICHLANDS      MOSUNNY   85  75  72 SW14      30.21R
WALLACE        MOSUNNY   85  77  75 SW5       30.20S
CLINTON        PTSUNNY   83  80  90 CALM      30.21R
ELIZABETHTOWN  PTSUNNY   86  76  72 SW13      30.21R
WHITEVILLE     MOSUNNY   86  75  70 S8        30.22S

$$

AMZ130-135-150-152-154-156-158-170-250-252-270-ANZ085-086-088-633-658-670-241600-
MARINE OBSERVATIONS

STATION/POSITION TIME  TEMP    WIND        PRES    WAVE   SWELL
                       AIR SEA DIR/SP/G            HT/PER HT/PER
                 (UTC) (F)     (DEG/KT/KT) (MB)    (FT/S) (FT/S)
64 E VA BEACH    1450   80 80  210/ 10/ 12 1021.5    4/ 7
64 E VA BEACH    1430   80 80                N/A     4/ 6   2/10
DUCK PIER        1424   80     240/ 11/ 13 1021.4
2 E DUCK         1426      68                N/A     2/ 8
10 NE DUCK       1430   78 78                N/A     2/ 7
OREGON INLET     1424   81 82  230/ 13/ 14 1022.7
13E OREGON INLT  1456      71                N/A     4/ 7   2/14
13E CAPE HATTERA 1430      82                N/A     5/ 5   2/10
HATTERAS CG      1424   80 80  230/ 10/ 15 1023.1
DIAMOND BUOY     1500          230/ 16/ 19 1022.6
CAPE LOOKOUT     1500   80     210/ 10/ 14 1023.3
BEAUFORT LAB     1424   81 83  240/  6/ 11 1022.4
30 SE NEW RVR IN NOT AVBL
30 SE NEW RVR IN 1456      82                N/A     4/ 6
27 SE WRIGHTSVLE NOT AVBL
5 SE WRIGHTSVLE  NOT AVBL
27 SE WRIGHTSVL  NOT AVBL
FRYING PAN BUOY  1500   83     200/ 10/ 12 1023.9
225 S CAPE HAT   1450   84 85  170/ 10/ 12 1024.1    3/ 8   3/ 8
41 SE CHARLESTON 1500   85     210/ 14/ 16 1023.3

$$



 

View Past Reports for Newport, NC.

Products Courtesy of NOAA-NWS
NWS Information Parsing Script by Ken True at Saratoga Weather - Script by SE Lincoln Weather.